Current weather by "City, St" or "zip code"  
 

Current Conditions: Iowa City Municipal Airport, IA

Fair and Breezy


59.0 F

Last Updated on Oct 31 2020, 12:52 pm CDT
Humidity: 54%
Wind Speed: S 20.7 G 31.1 mph
Barometer 29.98 in
Dewpoint: 42.1 F
Visibility: 10.00 mi
Precip: --
Heat Index: NA
Wind Chill: 55 F
Current conditions at:

Iowa City Municipal Airport, IA (KIOW)

Lat: 41.63945 Lon: 91.5445

Local Radar Image active severe weather and emergency alerts image image weather storm and storm spotter reports image weather observation monitoring service image
Local
Radar
Active
Alerts
Storm Reports Obs
Monitoring

Sign-up For Email & Text Message Weather Alert Notification Services



Advertise Here

Observation History for Iowa City Municipal Airport, IA


Time Wind
(mph)
Vis
(mi)
Weather Precip (in) Temperature (F) Relative
Humidity
Wind
Chill
(F)
Heat
Index
(F)
Pressure
Air Dwpt altimeter
(in)
sea level
(mb)
Rmks
12:52 pm CDT S 20.7 G 31.1 10.00 Fair and Breezy -- 59.0 42.1 54% 55 NA 29.98 1015.4
11:52 am CDT S 16.1 G 25.3 10.00 Fair -- 55.0 41.0 59% 51 NA 30.03 1017.4
10:52 am CDT S 15.0 G 20.7 10.00 Fair -- 51.0 41.0 69% 46 NA 30.07 1018.8
9:52 am CDT S 12.7 10.00 Fair -- 45.0 37.9 77% 39 NA 30.10 1019.8
8:52 am CDT SE 8.1 10.00 Fair -- 38.0 34.0 86% 32 NA 30.12 1020.5
7:52 am CDT SE 9.2 10.00 Fair -- 35.0 32.0 89% 28 NA 30.13 1020.8
6:52 am CDT SE 9.2 10.00 Fair -- 35.0 30.9 85% 28 NA 30.15 1021.3
5:52 am CDT SE 6.9 10.00 Fair -- 33.0 28.9 85% 27 NA 30.17 1022.2
4:52 am CDT SE 8.1 10.00 Fair -- 33.0 28.0 82% 26 NA 30.19 1022.6
3:52 am CDT SE 6.9 10.00 Fair -- 32.0 26.1 79% 26 NA 30.21 1023.4
2:52 am CDT SE 5.8 10.00 Fair -- 33.0 26.1 75% 28 NA 30.23 1024.3
1:52 am CDT SE 6.9 10.00 Fair -- 33.0 25.0 72% 27 NA 30.25 1024.7
12:52 am CDT SE 4.6 10.00 Fair -- 32.0 25.0 75% 27 NA 30.26 1025.1
11:52 pm CDT SE 6.9 10.00 Fair -- 34.0 26.1 73% 28 NA 30.28 1025.8
10:52 pm CDT SE 6.9 10.00 Fair -- 34.0 27.0 76% 28 NA 30.28 1026.1
9:52 pm CDT SE 5.8 10.00 Fair -- 36.0 27.0 70% 31 NA 30.28 1026.1
8:52 pm CDT SE 4.6 10.00 Fair -- 37.0 27.0 67% 33 NA 30.28 1026.1
7:52 pm CDT SE 3.5 10.00 Fair -- 39.0 27.0 62% NA NA 30.29 1026.3
6:52 pm CDT E 6.9 10.00 Fair -- 42.0 27.0 55% 38 NA 30.27 1025.7
5:52 pm CDT E 8.1 10.00 Fair -- 44.0 27.0 51% 39 NA 30.26 1025.2
4:52 pm CDT E 9.2 10.00 Fair -- 47.0 27.0 46% 43 NA 30.27 1025.5
3:52 pm CDT E 5.8 10.00 Fair -- 48.0 26.1 42% 45 NA 30.28 1025.9
2:52 pm CDT E 5.8 10.00 Fair -- 47.0 27.0 46% 44 NA 30.29 1026.3
1:52 pm CDT E 6.9 10.00 Mostly Cloudy -- 48.0 30.0 50% 45 NA 30.31 1026.7

Regional Weather Observation


Iowa City Municipal Airport, IA (KIOW)

Fair and Breezy
59.0 F

Washington, IA (KAWG)

Fair and Breezy
63.0 F

Muscatine, IA (KMUT)

Fair
61.0 F

Monticello Regional Airport, IA (KMXO)

Fair and Breezy
57.0 F

Vinton, Vinton Veterans Memorial Airpark Airport, IA (KVTI)

Fair
61.0 F

Fairfield Municipal Airport, IA (KFFL)

Fair and Breezy
61.0 F